[[{"header":{"parameterUnit":"m.s-1","parameterCategory":1,"la1":30.2991,"la2":30.254,"lo1":-89.0895,"lo2":-89.0444,"dy":0.0017,"dx":0.0017,"nx":28,"ny":28,"refTime":"2024-06-24T09:00:00:Z","depth":0,"parameterNumber":2,"parameterNumberName":"U-component_of_WINDS"},"data":[0,0,0,0,0,0,0,0,0,0,0,0,0,0,0,0,0,0,0,0,0,0,0,0,0,0,0,0,0,0,0,0,0,0,0,0,0,0,0,0,0,0,0,0,0,0,0,0,0,0,0,0,0,0,0,0,0,0,3.7079,3.708,0,3.7177,3.7178,3.7179,3.7127,3.7124,3.7122,3.7119,3.722,3.7225,3.723,0,0,0,0,0,0,0,0,0,0,0,0,0,3.6843,3.6848,3.7079,3.708,3.7081,3.7177,3.7178,3.718,3.7128,3.7124,3.7121,3.7118,3.7218,3.7224,3.723,0,0,0,0,0,0,0,0,0,0,0,0,0,3.6944,3.685,3.7079,3.7067,3.7067,3.7177,3.7178,3.718,3.7128,3.7124,3.712,3.7117,3.7216,3.7223,3.7231,3.7358,0,0,3.7255,3.7258,0,0,0,0,0,0,0,0,3.6938,3.6953,3.7067,3.7068,3.7068,3.7136,3.7132,3.724,3.7129,3.7105,3.7119,3.7115,3.7195,3.7204,3.7231,3.7363,3.7367,3.7255,3.726,3.7263,3.7265,0,0,0,0,0,0,0,3.6932,3.6948,3.7118,3.7069,3.7069,3.7056,3.7066,3.7152,3.7171,3.7107,3.7103,3.7116,3.7194,3.7224,3.7233,3.7369,3.7255,3.7262,3.7267,3.727,3.7606,3.761,0,0,0,0,0,0,3.6925,3.6943,3.7115,3.7121,3.6992,3.7063,3.7074,3.7118,3.717,3.7174,3.7119,3.7113,3.7213,3.7224,3.7237,3.7386,3.7263,3.727,3.7275,3.7601,3.7607,3.7611,0,0,0,0,0,0,3.6921,3.6941,3.7111,3.7031,3.7051,3.7072,3.7121,3.7122,3.7152,3.7179,3.7182,3.7146,3.721,3.7226,3.7327,3.7389,3.7274,3.7281,3.7596,3.7603,3.7609,3.7688,0,0,0,0,0,0,3.6914,3.694,3.6989,3.7032,3.7056,3.7201,3.7125,3.7127,3.7165,3.7158,3.7205,3.7209,3.7208,3.7316,3.7335,3.7397,3.7287,3.7591,3.7599,3.7607,3.768,3.7696,3.771,0,0,0,0,0,3.6906,3.7008,3.6992,3.7013,3.7118,3.7205,3.7218,3.7215,3.717,3.7219,3.7236,3.7208,3.738,3.7327,3.7348,3.7413,3.7587,3.7597,3.7606,3.7673,3.7693,3.771,0,0,0,0,0,0,3.6972,3.7014,3.6996,3.7116,3.7157,3.7196,3.7257,3.7237,3.7291,3.7282,3.7276,3.7287,3.7392,3.7413,3.7354,3.7537,3.7476,3.749,3.752,3.7539,3.7554,3.7545,3.7293,0,0,0,0,0,3.7,3.7068,3.71,3.7203,3.7224,3.7237,3.7275,3.7269,3.7311,3.7329,3.7353,3.7395,3.7458,3.75,3.756,3.7683,3.7691,3.7738,3.7753,3.7765,3.7777,3.784,3.7861,3.7643,3.7643,3.7643,0,0,3.706,3.7091,3.7134,3.7216,3.7248,3.7316,3.7252,3.7329,3.7379,3.734,3.7437,3.7457,3.7503,3.7615,3.7665,3.7635,3.7839,3.7778,3.7787,3.7792,3.7852,3.7873,3.7891,3.765,3.7648,3.7647,0,0,3.7202,3.7234,3.7321,3.7353,3.7401,3.7409,3.743,3.7472,3.7483,3.758,3.7551,3.7611,3.7721,3.7754,3.7785,3.7938,3.7912,3.7958,3.8036,3.8098,3.8115,3.813,3.8182,3.8201,3.797,3.797,3.797,0,3.727,3.7373,3.7368,3.7446,3.7482,3.7449,3.7536,3.7568,3.7633,3.7658,3.7624,3.7758,3.7788,3.7905,3.7942,3.797,3.7992,3.7952,3.8113,3.8128,3.8142,3.8191,3.8211,3.7975,3.7975,3.7974,3.7974,0,3.7452,3.7524,3.7588,3.7651,3.7694,3.7776,3.7782,3.7827,3.7817,3.7828,3.7925,3.7959,3.8024,3.8052,3.8043,3.8168,3.8147,3.8114,3.8051,3.8168,3.8214,3.8233,3.7982,3.798,3.7979,3.7978,0,0,3.7639,3.7697,3.772,3.7747,3.7796,3.7851,3.7931,3.7994,3.803,3.8076,3.8141,3.8234,3.8202,3.8238,3.8232,3.8287,3.8402,3.8246,3.8247,3.8271,3.8537,3.856,3.8582,3.8386,3.839,3.8393,3.8532,0,3.7783,3.7922,3.7919,3.8047,3.8112,3.8081,3.815,3.8187,3.8199,3.8255,3.8268,3.8333,3.8288,3.8308,3.8361,3.8377,3.8455,3.8367,3.8444,3.8447,3.8431,3.8607,3.8632,3.8763,3.8551,3.8554,3.8556,0,3.7969,3.802,3.8154,3.8192,3.8219,3.8281,3.8336,3.8391,3.8432,3.8436,3.8475,3.846,3.8539,3.8477,3.8584,3.8524,3.8556,3.8568,3.8573,3.8578,3.8507,3.8614,3.8804,3.8823,3.8585,3.8583,3.858,0,3.8088,3.819,3.8283,3.8307,3.8354,3.8398,3.8419,3.8456,3.8493,3.8542,3.8565,3.8623,3.8654,3.8699,3.8699,3.8654,3.8807,3.8745,3.8811,3.8811,3.8843,3.884,3.9038,3.8868,3.8868,3.8867,3.8867,0,3.8247,3.833,3.8337,3.8394,3.8485,3.848,3.857,3.8587,3.862,3.8679,3.8657,3.8712,3.8711,3.8767,3.8768,3.8855,3.887,3.8874,3.8873,3.8875,3.8874,3.8894,3.8883,3.8872,3.8871,3.887,3.8869,0,3.8395,3.8403,3.8502,3.8538,3.8548,3.8614,3.8644,3.8697,3.8706,3.8781,3.8798,3.8813,3.8877,3.8883,3.8958,3.8958,3.9062,3.9053,3.9048,3.9046,3.911,3.9103,3.9326,3.9353,3.9168,3.917,3.9171,0,3.8495,3.8558,3.86,3.8637,3.8661,3.8722,3.8759,3.8757,3.8796,3.8845,3.8892,3.8954,3.9003,3.9108,3.9124,3.9181,3.9171,3.9245,3.9179,3.9178,3.9168,3.9163,3.9168,3.9257,3.9259,3.9261,3.9262,0,3.867,3.8671,3.8725,3.8781,3.8825,3.8869,3.891,3.8941,3.8944,3.8989,3.9054,3.9092,3.9167,3.9228,3.9283,3.9304,3.9283,3.9283,3.93,3.9301,3.9295,3.9296,3.908,3.9277,3.9276,3.9275,3.9274,3.9273,3.8795,3.8848,3.8885,3.8946,3.8976,3.9014,3.9065,3.908,3.9134,3.9195,3.919,3.9262,3.9298,3.937,3.9395,3.9449,3.9424,3.9451,3.9457,3.9463,3.9468,3.9288,3.946,3.9459,3.9459,3.9459,3.9458,0,3.8967,3.8989,3.9045,3.9101,3.9148,3.9125,3.9168,3.9208,3.9271,3.9307,3.9356,3.9429,3.9487,3.9509,3.9565,3.9605,3.9596,3.9619,3.9615,3.9619,3.9489,3.9466,3.9625,3.9625,3.9625,3.9625,3.9625,3.9625,3.9061,3.9149,3.9153,3.9254,3.9275,3.9345,3.9371,3.9405,3.9433,3.9516,3.9564,3.9577,3.9607,3.9665,3.9717,3.9721,3.9742,3.9768,3.9769,3.9646,3.9629,3.9613,3.9591,3.9774,3.9774,3.9894,3.9895,3.9896]},{"header":{"parameterUnit":"m.s-1","parameterCategory":1,"la1":30.2991,"la2":30.254,"lo1":-89.0895,"lo2":-89.0444,"dy":0.0017,"dx":0.0017,"nx":28,"ny":28,"refTime":"2024-06-24T09:00:00:Z","depth":0,"parameterNumber":3,"parameterNumberName":"V-component_of_WINDS"},"data":[0,0,0,0,0,0,0,0,0,0,0,0,0,0,0,0,0,0,0,0,0,0,0,0,0,0,0,0,0,0,0,0,0,0,0,0,0,0,0,0,0,0,0,0,0,0,0,0,0,0,0,0,0,0,0,0,0,0,0.9733,0.9734,0,0.9796,0.9797,0.9797,0.9798,0.9797,0.9796,0.9795,0.9865,0.9867,0.987,0,0,0,0,0,0,0,0,0,0,0,0,0,0.9617,0.9619,0.9733,0.9734,0.9734,0.9796,0.9797,0.9798,0.9798,0.9797,0.9796,0.9795,0.9864,0.9867,0.987,0,0,0,0,0,0,0,0,0,0,0,0,0,0.9672,0.962,0.9733,0.9742,0.9743,0.9796,0.9797,0.9798,0.9798,0.9797,0.9795,0.9794,0.9863,0.9867,0.9871,0.992,0,0,0.9883,0.9884,0,0,0,0,0,0,0,0,0.9669,0.9677,0.974,0.9741,0.9743,0.9787,0.9781,0.9839,0.9798,0.9777,0.9795,0.9794,0.984,0.9846,0.9861,0.9923,0.9926,0.9883,0.9885,0.9887,0.9888,0,0,0,0,0,0,0,0.9665,0.9674,0.9758,0.9741,0.9743,0.9744,0.9751,0.9792,0.9815,0.9779,0.9779,0.9786,0.9841,0.9857,0.9863,0.9927,0.9883,0.9886,0.9889,0.989,1.0034,1.0035,0,0,0,0,0,0,0.9659,0.9671,0.9756,0.976,0.9702,0.9747,0.9754,0.9775,0.9815,0.982,0.9787,0.9786,0.9851,0.9858,0.9865,0.9925,0.9887,0.9891,0.9893,1.0032,1.0034,1.0035,0,0,0,0,0,0,0.9657,0.9667,0.9753,0.9715,0.9726,0.975,0.9773,0.9776,0.9792,0.9821,0.9826,0.9799,0.985,0.9859,0.9906,0.9928,0.9893,0.9896,1.003,1.0033,1.0035,1.0047,0,0,0,0,0,0,0.9653,0.9666,0.9684,0.9716,0.9728,0.9792,0.9774,0.9779,0.9798,0.9797,0.9833,0.9838,0.985,0.99,0.991,0.9933,0.9899,1.0029,1.0031,1.0034,1.0044,1.0049,1.0053,0,0,0,0,0,0.9649,0.9686,0.9685,0.9695,0.9751,0.9793,0.9801,0.9812,0.98,0.9819,0.9838,0.9837,0.9924,0.9905,0.9916,0.994,1.0027,1.0031,1.0034,1.0042,1.0048,1.0053,0,0,0,0,0,0,0.9658,0.969,0.9689,0.9737,0.9762,0.9793,0.9817,0.9818,0.9848,0.9846,0.9861,0.9869,0.9915,0.9933,0.9911,0.999,0.9974,0.998,0.9977,0.9983,0.9987,0.9982,0.9903,0,0,0,0,0,0.9664,0.9694,0.9722,0.9761,0.9774,0.9793,0.9812,0.9819,0.9846,0.9857,0.9879,0.9907,0.9941,0.9963,0.9995,1.0047,1.0055,1.0069,1.0073,1.0076,1.0081,1.011,1.0117,1.0046,1.0046,1.0046,0,0,0.968,0.9702,0.972,0.9764,0.9784,0.9816,0.9802,0.9837,0.9861,0.9863,0.9908,0.9925,0.9957,1.0006,1.0029,1.0022,1.0102,1.008,1.0083,1.0086,1.0114,1.0121,1.0127,1.0048,1.0048,1.0047,0,0,0.9725,0.9744,0.9778,0.9799,0.9829,0.9841,0.985,0.9881,0.9891,0.9936,0.9938,0.9968,1.0025,1.0048,1.0067,1.012,1.0121,1.013,1.0152,1.018,1.0186,1.0191,1.021,1.0216,1.0135,1.0135,1.0135,0,0.9741,0.9787,0.9797,0.9831,0.985,0.9852,0.9888,0.9907,0.9948,0.9962,0.9953,1.0024,1.0046,1.0101,1.0113,1.0129,1.014,1.0126,1.0184,1.0189,1.0194,1.0212,1.0219,1.0136,1.0136,1.0136,1.0136,0,0.9806,0.9838,0.9863,0.9899,0.9922,0.9957,0.9973,0.9994,0.9999,1.0013,1.0059,1.0085,1.0123,1.0136,1.0142,1.0192,1.0186,1.018,1.0165,1.0201,1.0219,1.0226,1.0137,1.0137,1.0137,1.0136,0,0,0.9858,0.9898,0.9907,0.9924,0.9957,0.9983,1.0018,1.0053,1.0072,1.0099,1.013,1.0178,1.0173,1.0195,1.0203,1.0227,1.0267,1.0219,1.022,1.0227,1.0325,1.0329,1.0337,1.0268,1.0269,1.027,1.0322,0,0.9906,0.9967,0.9976,1.0031,1.0061,1.0063,1.0094,1.0118,1.0132,1.0161,1.0177,1.0211,1.0201,1.0214,1.0239,1.0257,1.0287,1.0254,1.0298,1.0299,1.029,1.0346,1.035,1.0398,1.0329,1.033,1.0331,0,0.997,0.9998,1.0054,1.0083,1.0096,1.0123,1.0156,1.0183,1.0212,1.022,1.0244,1.0249,1.0287,1.027,1.0323,1.03,1.0319,1.0331,1.0333,1.0338,1.0317,1.0352,1.0413,1.042,1.0342,1.0341,1.034,0,1.0003,1.0054,1.0094,1.0108,1.0143,1.0162,1.0178,1.0204,1.0225,1.0254,1.0267,1.0301,1.032,1.0347,1.0362,1.0347,1.0414,1.0398,1.0424,1.0423,1.0438,1.0437,1.0503,1.045,1.045,1.0449,1.0449,0,1.0056,1.009,1.0109,1.0134,1.0173,1.0184,1.0224,1.0239,1.0263,1.0292,1.0296,1.0323,1.0341,1.0371,1.0383,1.0426,1.0434,1.0443,1.0446,1.0443,1.0442,1.0456,1.0453,1.0451,1.0451,1.045,1.045,0,1.0099,1.0112,1.0156,1.0185,1.0193,1.022,1.0246,1.0271,1.0284,1.0321,1.033,1.0352,1.0388,1.0405,1.045,1.0458,1.0507,1.0507,1.0497,1.0498,1.0522,1.052,1.06,1.0611,1.055,1.0551,1.0551,0,1.0131,1.0158,1.0188,1.0207,1.0222,1.0253,1.0273,1.0286,1.0307,1.0341,1.0362,1.0397,1.0427,1.0484,1.0505,1.054,1.0542,1.0567,1.0547,1.0543,1.0542,1.0541,1.0544,1.0571,1.0572,1.0572,1.0573,0,1.0188,1.0193,1.0221,1.0252,1.0276,1.0301,1.0326,1.0341,1.0358,1.0382,1.0417,1.044,1.0485,1.0521,1.0557,1.0575,1.0577,1.0578,1.0586,1.0584,1.0576,1.0581,1.0507,1.0577,1.0576,1.0576,1.0576,1.0576,1.0227,1.0251,1.0275,1.0307,1.0326,1.0349,1.0374,1.039,1.0419,1.0456,1.0462,1.05,1.0528,1.0576,1.0595,1.0626,1.062,1.0632,1.0635,1.0637,1.0639,1.0571,1.0633,1.0633,1.0633,1.0633,1.0632,0,1.0284,1.03,1.0328,1.0362,1.0387,1.0385,1.0412,1.0434,1.0466,1.0491,1.0519,1.0561,1.0595,1.0619,1.0654,1.0675,1.0677,1.0684,1.0682,1.0687,1.0642,1.0631,1.0681,1.0681,1.0681,1.0681,1.0681,1.0681,1.0317,1.0356,1.0364,1.0414,1.043,1.0466,1.0482,1.0503,1.0523,1.0569,1.0596,1.0611,1.0636,1.0673,1.0705,1.0711,1.0724,1.0731,1.0737,1.0695,1.069,1.0685,1.0675,1.0734,1.0734,1.078,1.078,1.078]}]]